Stations météo

réclame
Mon MeteoGroup
Falsterbo, Suède (2616): Température de l'air & dewpoint: 15.01.2019 17:00:00 - 21.01.2019 17:00:00 (CET)Falsterbo, Suède (2616): Vitesse du vent: 15.01.2019 17:00:00 - 21.01.2019 17:00:00 (CET)Falsterbo, Suède (2616): Direction du vent: 15.01.2019 17:00:00 - 21.01.2019 17:00:00 (CET)Falsterbo, Suède (2616): reduced air pressure: 15.01.2019 17:00:00 - 21.01.2019 17:00:00 (CET)Falsterbo, Suède (2616): visibility: 15.01.2019 17:00:00 - 21.01.2019 17:00:00 (CET)
Date & Time tt [°C] td [°C] ff [km/h] ff [knt] dd ppp [hPa] vv [km]
21.01.2019 17:00:00 - - - - - - -
21.01.2019 16:00:00 1,3 1,0 40 21 SW 1012,6 1,0
21.01.2019 15:00:00 - - - - - - -
21.01.2019 14:00:00 - - - - - - -
21.01.2019 13:00:00 0,6 0,3 40 21 SW 1015,0 2,5
21.01.2019 12:00:00 - - - - - - -
21.01.2019 11:00:00 - - - - - - -
21.01.2019 10:00:00 0,4 -2,8 36 19 WSW 1017,2 6
21.01.2019 09:00:00 - - - - - - -
21.01.2019 08:00:00 - - - - - - -
21.01.2019 07:00:00 1,0 -0,6 29 16 SW 1018,1 10
21.01.2019 06:00:00 - - - - - - -
21.01.2019 05:00:00 - - - - - - -
21.01.2019 04:00:00 - - - - - - -
21.01.2019 03:00:00 - - - - - - -
21.01.2019 02:00:00 - - - - - - -
21.01.2019 01:00:00 - - - - - - -
21.01.2019 00:00:00 - - - - - - -
20.01.2019 23:00:00 - - - - - - -
20.01.2019 22:00:00 - - - - - - -
20.01.2019 21:00:00 - - - - - - -
20.01.2019 20:00:00 - - - - - - -
20.01.2019 19:00:00 1,0 0,1 29 16 W 1019,9 6
20.01.2019 18:00:00 - - - - - - -
20.01.2019 17:00:00 - - - - - - -
20.01.2019 16:00:00 0,7 -0,2 25 14 W 1019,4 6
20.01.2019 15:00:00 - - - - - - -
20.01.2019 14:00:00 - - - - - - -
20.01.2019 13:00:00 1,4 0,1 25 14 W 1019,3 9
20.01.2019 12:00:00 - - - - - - -
20.01.2019 11:00:00 - - - - - - -
20.01.2019 10:00:00 0,8 -0,2 22 12 W 1018,9 7
20.01.2019 09:00:00 - - - - - - -
20.01.2019 08:00:00 - - - - - - -
20.01.2019 07:00:00 0,4 -0,6 22 12 W 1017,8 4,5
20.01.2019 06:00:00 - - - - - - -
20.01.2019 05:00:00 - - - - - - -
20.01.2019 04:00:00 - - - - - - -
20.01.2019 03:00:00 - - - - - - -
20.01.2019 02:00:00 - - - - - - -
20.01.2019 01:00:00 - - - - - - -
20.01.2019 00:00:00 - - - - - - -
19.01.2019 23:00:00 - - - - - - -
19.01.2019 22:00:00 - - - - - - -
19.01.2019 21:00:00 - - - - - - -
19.01.2019 20:00:00 - - - - - - -
19.01.2019 19:00:00 1,0 0,1 22 12 W 1018,2 8
19.01.2019 18:00:00 - - - - - - -
19.01.2019 17:00:00 - - - - - - -
19.01.2019 16:00:00 1,8 0,9 25 14 W 1018,3 9
19.01.2019 15:00:00 - - - - - - -
19.01.2019 14:00:00 - - - - - - -
19.01.2019 13:00:00 1,4 0,8 29 16 WSW 1018,8 9
19.01.2019 12:00:00 - - - - - - -
19.01.2019 11:00:00 - - - - - - -
19.01.2019 10:00:00 2,2 0,9 22 12 W 1018,4 21
19.01.2019 09:00:00 - - - - - - -
19.01.2019 08:00:00 - - - - - - -
19.01.2019 07:00:00 1,6 0,6 25 14 W 1017,3 40
19.01.2019 06:00:00 - - - - - - -
19.01.2019 05:00:00 - - - - - - -
19.01.2019 04:00:00 - - - - - - -
19.01.2019 03:00:00 - - - - - - -
19.01.2019 02:00:00 - - - - - - -
19.01.2019 01:00:00 - - - - - - -
19.01.2019 00:00:00 - - - - - - -
18.01.2019 23:00:00 - - - - - - -
18.01.2019 22:00:00 - - - - - - -
18.01.2019 21:00:00 - - - - - - -
18.01.2019 20:00:00 - - - - - - -
18.01.2019 19:00:00 1,3 -1,9 25 14 WNW 1015,2 45
18.01.2019 18:00:00 - - - - - - -
18.01.2019 17:00:00 - - - - - - -
18.01.2019 16:00:00 1,7 -1,2 25 14 WNW 1014,3 45
18.01.2019 15:00:00 - - - - - - -
18.01.2019 14:00:00 - - - - - - -
18.01.2019 13:00:00 1,8 -1,5 29 16 W 1013,0 35
18.01.2019 12:00:00 - - - - - - -
18.01.2019 11:00:00 - - - - - - -
18.01.2019 10:00:00 1,2 -2,0 25 14 W 1012,4 45
18.01.2019 09:00:00 - - - - - - -
18.01.2019 08:00:00 - - - - - - -
18.01.2019 07:00:00 0,3 -1,8 29 16 NW 1010,2 45
18.01.2019 06:00:00 - - - - - - -
18.01.2019 05:00:00 - - - - - - -
18.01.2019 04:00:00 - - - - - - -
18.01.2019 03:00:00 - - - - - - -
18.01.2019 02:00:00 - - - - - - -
18.01.2019 01:00:00 - - - - - - -
18.01.2019 00:00:00 - - - - - - -
17.01.2019 23:00:00 - - - - - - -
17.01.2019 22:00:00 - - - - - - -
17.01.2019 21:00:00 - - - - - - -
17.01.2019 20:00:00 - - - - - - -
17.01.2019 19:00:00 0,7 -1,2 40 21 NNW 995,9 50
17.01.2019 18:00:00 - - - - - - -
17.01.2019 17:00:00 - - - - - - -
17.01.2019 16:00:00 1,2 0,6 32 18 NNW 991,9 3,0
17.01.2019 15:00:00 - - - - - - -
17.01.2019 14:00:00 - - - - - - -
17.01.2019 13:00:00 4,5 3,0 36 19 WSW 991,2 22
17.01.2019 12:00:00 - - - - - - -
17.01.2019 11:00:00 - - - - - - -
17.01.2019 10:00:00 4,5 2,8 40 21 WSW 991,5 22
17.01.2019 09:00:00 - - - - - - -
17.01.2019 08:00:00 - - - - - - -
17.01.2019 07:00:00 4,6 2,9 40 21 WSW 990,2 30
17.01.2019 06:00:00 - - - - - - -
17.01.2019 05:00:00 - - - - - - -
17.01.2019 04:00:00 - - - - - - -
17.01.2019 03:00:00 - - - - - - -
17.01.2019 02:00:00 - - - - - - -
17.01.2019 01:00:00 - - - - - - -
17.01.2019 00:00:00 - - - - - - -
16.01.2019 23:00:00 - - - - - - -
16.01.2019 22:00:00 - - - - - - -
16.01.2019 21:00:00 - - - - - - -
16.01.2019 20:00:00 - - - - - - -
16.01.2019 19:00:00 5,7 5,0 40 21 WSW 995,1 18
16.01.2019 18:00:00 - - - - - - -
16.01.2019 17:00:00 - - - - - - -
16.01.2019 16:00:00 5,6 5,2 29 16 SW 997,1 2,8
16.01.2019 15:00:00 - - - - - - -
16.01.2019 14:00:00 - - - - - - -
16.01.2019 13:00:00 5,7 4,7 40 21 WSW 998,9 9
16.01.2019 12:00:00 - - - - - - -
16.01.2019 11:00:00 - - - - - - -
16.01.2019 10:00:00 5,2 4,5 32 18 WSW 1000,4 9
16.01.2019 09:00:00 - - - - - - -
16.01.2019 08:00:00 - - - - - - -
16.01.2019 07:00:00 5,5 4,9 18 10 WSW 1000,5 15
16.01.2019 06:00:00 - - - - - - -
16.01.2019 05:00:00 - - - - - - -
16.01.2019 04:00:00 - - - - - - -
16.01.2019 03:00:00 - - - - - - -
16.01.2019 02:00:00 - - - - - - -
16.01.2019 01:00:00 - - - - - - -
16.01.2019 00:00:00 - - - - - - -
15.01.2019 23:00:00 - - - - - - -
15.01.2019 22:00:00 - - - - - - -
15.01.2019 21:00:00 - - - - - - -
15.01.2019 20:00:00 - - - - - - -
15.01.2019 19:00:00 5,5 3,3 43 23 WNW 998,7 15
15.01.2019 18:00:00 - - - - - - -
15.01.2019 17:00:00 - - - - - - -

tt = Température de l'air
td = dewpoint
ff = Vitesse du vent
dd = Direction du vent
ppp = reduced air pressure
vv = visibility

stations d'obs. à proximité